CW7668 Weather Reports


Display with metric or nautical units.
time (UTC)temp
F
wind
direction
speed
MPH
gust
MPH
rain 1hr
in
rain 24hr
in
rain mn
in
humidity
%
barometer
mb
20260510005626 77 147 0.0 4.0 0.00 0.00 0.00 74 1008.6
20260510005126 77 149 2.0 6.0 0.00 0.00 0.00 74 1008.5
20260510004627 77 145 2.0 9.0 0.00 0.00 0.00 73 1008.4
20260510004127 77 117 2.0 9.0 0.00 0.00 0.00 73 1008.6
20260510003627 77 146 1.0 8.0 0.00 0.00 0.00 73 1008.8
20260510003127 77 101 2.0 10.0 0.00 0.00 0.00 73 1008.9
20260510002625 76 141 3.0 10.0 0.00 0.00 0.00 75 1008.7
20260510002125 76 76 4.0 12.0 0.00 0.00 0.00 76 1008.8
20260510001625 77 82 5.0 16.0 0.00 0.00 0.00 74 1008.7
20260510001125 78 96 5.0 16.0 0.00 0.00 0.00 70 1008.7
20260510000625 77 98 4.0 14.0 0.00 0.00 0.00 71 1008.7
20260510000126 77 86 4.0 11.0 0.00 0.00 0.00 74 1008.8
20260509235625 78 89 5.0 12.0 0.00 0.00 0.00 72 1008.6
20260509235125 80 115 5.0 13.0 0.00 0.00 0.00 71 1008.7
20260509234625 84 110 3.0 13.0 0.00 0.00 0.00 68 1008.4
20260509234132 87 11 0.0 3.0 0.00 0.00 0.00 77 1008.1
20260509234127 86 161 1.0 7.0 0.00 0.00 0.00 75 1008.2
20260509233126 87 325 0.0 1.0 0.00 0.00 0.00 74 1008.1
20260509232627 87 325 0.0 1.0 0.00 0.00 0.00 74 1008.2
20260509232126 87 325 0.0 0.0 0.00 0.00 0.00 73 1008.0
20260509231623 87 325 0.0 1.0 0.00 0.00 0.00 75 1007.9
20260509231122 87 325 0.0 1.0 0.00 0.00 0.00 74 1008.1
20260509230620 87 325 0.0 2.0 0.00 0.00 0.00 73 1008.1
20260509230120 88 325 0.0 2.0 0.00 0.00 0.00 73 1008.1
20260509225617 88 325 0.0 1.0 0.00 0.00 0.00 73 1008.1
20260509225114 88 325 0.0 1.0 0.00 0.00 0.00 73 1007.9
20260509224842 88 325 0.0 1.0 0.00 0.00 0.00 71 1007.8
20260509224109 88 325 0.0 3.0 0.00 0.00 0.00 70 1007.9
20260509223610 88 325 0.0 3.0 0.00 0.00 0.00 72 1007.8
20260509223104 89 329 1.0 3.0 0.00 0.00 0.00 72 1008.6
20260509222558 89 329 1.0 3.0 0.00 0.00 0.00 70 1007.9
20260509222423 89 329 0.0 0.0 0.00 0.00 0.00 70 1007.8
20260509221040 89 329 0.0 0.0 0.00 0.00 0.00 72 1007.8
20260509220534 89 314 0.0 0.0 0.00 0.00 0.00 74 1007.8
20260509220027 89 314 0.0 0.0 0.00 0.00 0.00 72 1007.8
20260509215521 89 314 0.0 2.0 0.00 0.00 0.00 74 1007.6
20260509215016 89 318 1.0 3.0 0.00 0.00 0.00 71 1007.7
20260509214510 90 316 1.0 3.0 0.00 0.00 0.00 72 1007.6
20260509214004 89 25 0.0 3.0 0.00 0.00 0.00 75 1007.8
20260509213458 89 27 0.0 3.0 0.00 0.00 0.00 75 1007.7
20260509212952 89 27 0.0 3.0 0.00 0.00 0.00 74 1007.8
20260509212445 88 27 0.0 3.0 0.00 0.00 0.00 75 1007.8
20260509211946 88 27 0.0 3.0 0.00 0.00 0.00 77 1007.9
20260509211443 88 36 1.0 4.0 0.00 0.00 0.00 76 1007.9
20260509210943 88 39 1.0 4.0 0.00 0.00 0.00 77 1007.8
20260509210445 88 32 0.0 2.0 0.00 0.00 0.00 76 1007.8
20260509205942 88 32 0.0 3.0 0.00 0.00 0.00 76 1007.9
20260509205439 88 32 1.0 3.0 0.00 0.00 0.00 76 1008.0
20260509204940 88 355 1.0 5.0 0.00 0.00 0.00 75 1008.2
20260509204440 88 355 1.0 5.0 0.00 0.00 0.00 75 1008.1
20260509203937 88 339 1.0 3.0 0.00 0.00 0.00 75 1008.2
20260509203435 88 343 0.0 3.0 0.00 0.00 0.00 77 1008.3
20260509202935 88 355 1.0 3.0 0.00 0.00 0.00 78 1008.3
20260509202436 88 355 1.0 4.0 0.00 0.00 0.00 76 1008.4
20260509201936 88 290 1.0 10.0 0.00 0.00 0.00 76 1008.4
20260509201436 88 288 1.0 10.0 0.00 0.00 0.00 80 1008.5
20260509200935 88 331 0.0 3.0 0.00 0.00 0.00 79 1008.6
20260509200431 88 331 0.0 3.0 0.00 0.00 0.00 77 1008.7
20260509195930 87 332 1.0 4.0 0.00 0.00 0.00 80 1008.7
20260509195431 87 332 1.0 7.0 0.00 0.00 0.00 79 1008.7
20260509194932 87 11 1.0 7.0 0.00 0.00 0.00 79 1008.8
20260509194425 87 272 1.0 3.0 0.00 0.00 0.00 78 1008.8
20260509193919 87 267 1.0 3.0 0.00 0.00 0.00 79 1008.8
20260509193413 87 295 1.0 4.0 0.00 0.00 0.00 81 1008.9
20260509192906 87 273 1.0 6.0 0.00 0.00 0.00 78 1008.9
20260509192404 87 305 1.0 6.0 0.00 0.00 0.00 78 1009.0
20260509192357 88 299 1.0 4.0 0.00 0.00 0.00 78 1009.1
20260509191619 88 277 1.0 4.0 0.00 0.00 0.00 77 1009.1
20260509190843 88 281 1.0 4.0 0.00 0.00 0.00 77 1009.1
20260509190607 87 49 1.0 2.0 0.00 0.00 0.00 78 1009.2
20260509185831 87 55 0.0 2.0 0.00 0.00 0.00 79 1009.2
20260509185555 87 55 0.0 3.0 0.00 0.01 0.00 80 1009.1
20260509184819 86 55 1.0 3.0 0.00 0.03 0.00 78 1009.3
20260509184312 86 140 1.0 7.0 0.00 0.03 0.00 79 1009.3
20260509183807 86 135 1.0 7.0 0.00 0.04 0.00 83 1009.3
20260509183301 85 121 1.0 7.0 0.00 0.04 0.00 82 1009.4
20260509182755 85 101 1.0 7.0 0.00 0.04 0.00 81 1009.4
20260509182249 85 133 2.0 7.0 0.00 0.04 0.00 80 1009.5
20260509182014 85 103 2.0 8.0 0.00 0.04 0.00 79 1009.5
20260509181237 86 149 1.0 8.0 0.00 0.04 0.00 81 1009.5
20260509180734 86 141 1.0 5.0 0.00 0.04 0.00 81 1009.7
20260509180728 86 153 1.0 5.0 0.00 0.04 0.00 82 1009.8
20260509175951 85 146 1.0 5.0 0.00 0.04 0.00 83 1009.9
20260509175213 85 161 1.0 5.0 0.00 0.04 0.00 84 1009.9
20260509174707 84 157 2.0 8.0 0.00 0.04 0.00 85 1010.1
20260509174201 84 145 1.0 8.0 0.00 0.04 0.00 83 1010.1
20260509173655 84 247 1.0 5.0 0.00 0.04 0.00 85 1010.2
20260509173149 83 137 2.0 5.0 0.00 0.04 0.00 85 1010.3
20260509172643 83 135 2.0 5.0 0.00 0.04 0.00 86 1010.3
20260509172408 83 120 3.0 8.0 0.00 0.04 0.00 86 1010.5
20260509171631 83 151 3.0 8.0 0.00 0.04 0.00 87 1010.4
20260509171125 83 177 3.0 8.0 0.00 0.04 0.00 90 1010.4
20260509170619 82 193 3.0 8.0 0.00 0.04 0.00 90 1010.2
20260509170113 81 118 2.0 6.0 0.00 0.04 0.00 92 1010.1
20260509165610 80 84 2.0 6.0 0.00 0.04 0.00 91 1010.4
20260509165604 80 83 1.0 6.0 0.00 0.04 0.00 90 1010.5
20260509164555 80 71 0.0 3.0 0.00 0.04 0.00 90 1010.5
20260509164050 80 71 0.0 3.0 0.00 0.04 0.00 91 1010.5
20260509163543 79 70 1.0 3.0 0.00 0.04 0.00 92 1010.6
20260509163037 79 70 0.0 4.0 0.00 0.04 0.00 93 1010.7
20260509162531 79 71 1.0 4.0 0.00 0.04 0.00 94 1010.6
20260509162025 79 92 1.0 3.0 0.00 0.04 0.00 93 1010.6
20260509161519 79 115 0.0 3.0 0.00 0.04 0.00 94 1010.6
20260509161244 78 132 0.0 3.0 0.00 0.04 0.00 94 1010.8
20260509160507 78 132 0.0 3.0 0.00 0.04 0.00 95 1010.9
20260509160001 78 136 0.0 3.0 0.00 0.04 0.00 94 1010.7
20260509155455 78 137 0.0 0.0 0.00 0.04 0.00 95 1010.6
20260509154949 78 137 0.0 0.0 0.00 0.04 0.00 95 1010.9
20260509154442 78 137 0.0 0.0 0.00 0.04 0.00 95 1010.8
20260509153937 78 137 0.0 0.0 0.00 0.04 0.00 95 1010.8
20260509153703 78 137 0.0 0.0 0.00 0.04 0.00 95 1010.8
20260509152925 77 137 0.0 0.0 0.00 0.04 0.00 95 1010.7
20260509152419 77 137 0.0 0.0 0.00 0.04 0.00 95 1010.6
20260509151913 77 137 0.0 2.0 0.00 0.04 0.00 95 1010.6
20260509151638 77 137 1.0 3.0 0.00 0.04 0.00 96 1010.6
20260509150901 77 137 1.0 3.0 0.00 0.04 0.00 96 1010.5
20260509150356 77 140 0.0 3.0 0.00 0.04 0.00 96 1010.4
20260509145849 77 144 0.0 0.0 0.00 0.04 0.00 96 1010.5
20260509145344 77 161 0.0 0.0 0.00 0.04 0.00 97 1010.3
20260509144845 76 161 0.0 0.0 0.00 0.04 0.00 97 1010.0
20260509144345 76 187 0.0 0.0 0.00 0.04 0.00 97 1010.1
20260509143850 76 187 0.0 0.0 0.00 0.04 0.00 97 1009.9
20260509143845 76 187 0.0 0.0 0.00 0.04 0.00 97 1010.0
20260509142844 76 188 0.0 0.0 0.00 0.04 0.00 97 1009.8
20260509142343 76 188 0.0 0.0 0.00 0.04 0.00 97 1009.7
20260509141841 76 188 0.0 0.0 0.00 0.04 0.00 97 1009.6
20260509141340 76 188 0.0 0.0 0.00 0.04 0.00 97 1009.6
20260509141109 76 134 0.0 0.0 0.00 0.04 0.00 97 1009.8
20260509140338 76 134 0.0 0.0 0.00 0.04 0.00 97 1009.7
20260509135840 76 134 0.0 0.0 0.00 0.04 0.00 97 1009.5
20260509135339 75 134 0.0 0.0 0.00 0.04 0.00 97 1009.6
20260509134840 75 134 0.0 3.0 0.00 0.04 0.00 98 1009.8
20260509134335 75 134 0.0 3.0 0.00 0.04 0.00 98 1009.9
20260509133835 75 143 1.0 4.0 0.00 0.04 0.00 98 1010.2
20260509133335 75 143 1.0 4.0 0.00 0.04 0.00 98 1010.3
20260509133106 75 107 1.0 3.0 0.00 0.04 0.00 98 1010.5
20260509132335 75 106 2.0 3.0 0.00 0.04 0.00 98 1010.2
20260509131836 75 103 1.0 3.0 0.00 0.04 0.00 98 1010.5
20260509131337 75 12 0.0 2.0 0.00 0.04 0.00 98 1010.7
20260509130836 76 355 0.0 0.0 0.00 0.04 0.00 98 1010.9
20260509130608 75 355 0.0 1.0 0.00 0.04 0.00 98 1010.8
20260509125332 75 355 0.0 0.0 0.00 0.04 0.00 98 1010.6
20260509124833 75 355 0.0 0.0 0.00 0.04 0.00 98 1010.8
20260509124330 75 355 0.0 0.0 0.00 0.04 0.00 98 1010.5
20260509123832 75 355 0.0 2.0 0.00 0.04 0.00 98 1010.3
20260509123330 75 355 0.0 2.0 0.00 0.04 0.00 98 1010.3
20260509122836 74 350 0.0 0.0 0.00 0.04 0.00 98 1010.6
20260509122831 75 355 0.0 1.0 0.00 0.04 0.00 98 1010.3
20260509122450 74 350 0.0 0.0 0.00 0.04 0.00 98 1010.7
20260509121330 74 350 0.0 0.0 0.00 0.04 0.00 98 1010.5
20260509120830 74 350 0.0 0.0 0.00 0.04 0.00 98 1010.5
20260509120330 74 350 0.0 0.0 0.00 0.04 0.00 98 1010.5
20260509115830 74 350 0.0 0.0 0.00 0.04 0.00 98 1010.5
20260509115331 74 350 0.0 0.0 0.00 0.04 0.00 98 1010.3
20260509114832 74 350 0.0 1.0 0.00 0.04 0.00 98 1010.2
20260509114331 74 349 0.0 1.0 0.00 0.04 0.00 98 1010.3
20260509113830 74 350 0.0 0.0 0.00 0.04 0.00 98 1010.4
20260509113331 74 350 0.0 2.0 0.00 0.04 0.00 98 1010.4
20260509113056 74 350 0.0 2.0 0.00 0.04 0.00 98 1010.4
20260509112319 74 350 1.0 4.0 0.00 0.04 0.00 98 1010.4
20260509111813 74 350 1.0 4.0 0.00 0.04 0.00 98 1010.5
20260509111306 74 142 0.0 2.0 0.00 0.04 0.00 98 1010.4
20260509110800 74 142 0.0 1.0 0.00 0.04 0.00 98 1010.3
20260509110526 74 142 0.0 0.0 0.00 0.04 0.00 98 1009.9
20260509105749 74 142 0.0 0.0 0.00 0.04 0.00 97 1009.9
20260509105243 74 142 0.0 0.0 0.00 0.04 0.00 97 1009.8
20260509104735 74 142 0.0 0.0 0.00 0.04 0.00 97 1009.7
20260509104228 74 142 0.0 0.0 0.00 0.04 0.00 98 1009.9
20260509103723 74 142 0.0 0.0 0.00 0.04 0.00 98 1009.8
20260509103217 74 143 0.0 0.0 0.00 0.04 0.00 98 1009.8
20260509103212 75 142 0.0 0.0 0.00 0.04 0.00 98 1009.7
20260509102205 75 142 0.0 2.0 0.00 0.04 0.00 98 1009.7
20260509101659 75 142 0.0 2.0 0.00 0.04 0.00 98 1009.7
20260509101153 75 142 0.0 1.0 0.00 0.04 0.00 98 1009.7
20260509100653 75 142 0.0 0.0 0.00 0.04 0.00 98 1009.7
20260509100153 75 142 0.0 0.0 0.00 0.04 0.00 98 1009.6
20260509095923 75 143 0.0 0.0 0.00 0.04 0.00 98 1009.5
20260509095152 75 142 0.0 0.0 0.00 0.04 0.00 98 1009.4
20260509094652 75 143 0.0 0.0 0.00 0.04 0.00 98 1009.4
20260509094152 75 142 0.0 0.0 0.00 0.04 0.00 98 1009.3
20260509093924 75 142 0.0 0.0 0.00 0.04 0.00 98 1009.2
20260509093153 75 142 0.0 0.0 0.00 0.04 0.00 98 1009.3
20260509092650 75 142 0.0 0.0 0.00 0.04 0.00 98 1009.3
20260509092151 75 142 0.0 0.0 0.00 0.04 0.00 98 1009.3
20260509091922 75 142 0.0 0.0 0.00 0.04 0.00 98 1009.3
20260509091151 75 142 0.0 0.0 0.00 0.04 0.00 98 1009.5
20260509090656 75 143 0.0 0.0 0.00 0.04 0.00 98 1009.8
20260509090651 75 142 0.0 0.0 0.00 0.04 0.00 98 1009.8
20260509085651 75 143 0.0 0.0 0.00 0.04 0.00 98 1009.7
20260509085148 75 142 0.0 0.0 0.00 0.04 0.00 98 1009.8
20260509084650 75 143 0.0 0.0 0.00 0.04 0.00 98 1009.9
20260509084147 75 142 0.0 0.0 0.00 0.04 0.00 98 1009.8
20260509084140 75 142 0.0 0.0 0.00 0.04 0.00 98 1009.9
20260509083132 75 142 0.0 0.0 0.00 0.04 0.00 98 1009.8
20260509082626 75 142 0.0 0.0 0.00 0.04 0.00 98 1009.7
20260509082119 75 142 0.0 0.0 0.00 0.04 0.00 98 1009.7
20260509081614 75 142 0.0 2.0 0.00 0.04 0.00 98 1009.6
20260509081108 75 143 0.0 2.0 0.00 0.04 0.00 98 1009.8
20260509080602 75 142 0.0 2.0 0.00 0.04 0.00 98 1009.7
20260509080056 75 142 0.0 2.0 0.00 0.04 0.00 98 1009.5
20260509075550 75 142 0.0 2.0 0.00 0.04 0.00 98 1009.6
20260509075044 75 142 0.0 3.0 0.00 0.04 0.00 98 1009.5
20260509074538 75 143 0.0 3.0 0.00 0.04 0.00 98 1009.6
20260509074032 75 143 1.0 3.0 0.00 0.04 0.00 98 1009.5
20260509073525 75 142 1.0 3.0 0.00 0.04 0.00 98 1009.5
20260509073020 75 143 1.0 5.0 0.00 0.04 0.00 98 1009.4
20260509072514 75 145 2.0 6.0 0.00 0.04 0.00 98 1009.3
20260509072008 75 105 2.0 6.0 0.00 0.04 0.00 98 1009.2
20260509071732 75 130 2.0 4.0 0.00 0.04 0.00 98 1009.3
20260509070956 75 98 1.0 4.0 0.00 0.04 0.00 98 1009.5
20260509070450 75 102 1.0 4.0 0.00 0.04 0.00 98 1009.6
20260509065944 75 97 1.0 4.0 0.00 0.04 0.00 98 1009.7
20260509065438 74 83 0.0 4.0 0.00 0.04 0.00 98 1009.7
20260509065204 74 82 0.0 3.0 0.00 0.04 0.00 98 1009.8
20260509064426 74 81 0.0 2.0 0.00 0.04 0.00 98 1009.8
20260509063920 74 81 0.0 2.0 0.00 0.04 0.00 98 1009.9
20260509063645 75 81 0.0 4.0 0.00 0.04 0.00 98 1010.1
20260509062911 75 81 0.0 4.0 0.00 0.04 0.00 97 1010.1
20260509062904 75 81 0.0 1.0 0.00 0.04 0.00 97 1010.1
20260509061856 75 81 0.0 2.0 0.00 0.04 0.00 97 1010.0
20260509061350 75 81 0.0 3.0 0.00 0.04 0.00 97 1010.1
20260509060844 75 81 0.0 3.0 0.00 0.04 0.00 97 1010.2
20260509060338 75 80 0.0 3.0 0.00 0.04 0.00 97 1010.2
20260509055832 75 81 0.0 4.0 0.00 0.04 0.00 97 1010.1
20260509055326 74 81 0.0 4.0 0.00 0.04 0.00 97 1010.2
20260509055050 74 80 0.0 2.0 0.00 0.04 0.00 97 1010.3
20260509054314 74 80 0.0 1.0 0.00 0.04 0.00 97 1010.3
20260509053809 74 80 0.0 2.0 0.00 0.04 0.00 97 1010.2
20260509053803 74 80 0.0 3.0 0.00 0.04 0.00 97 1010.4
20260509052756 74 80 0.0 3.0 0.00 0.04 0.00 97 1010.2
20260509052521 74 78 0.0 3.0 0.00 0.04 0.00 97 1010.3
20260509051744 74 78 1.0 3.0 0.00 0.04 0.00 97 1010.3
20260509051243 74 78 0.0 3.0 0.00 0.04 0.00 97 1010.3
20260509050739 74 79 0.0 3.0 0.00 0.04 0.00 97 1010.1
20260509050240 74 86 0.0 0.0 0.00 0.04 0.00 97 1010.2
20260509045740 74 86 0.0 0.0 0.00 0.04 0.04 97 1010.2
20260509045237 74 86 0.0 3.0 0.00 0.04 0.04 97 1010.2
20260509044736 74 86 1.0 4.0 0.00 0.04 0.04 97 1010.2
20260509044241 74 109 0.0 3.0 0.00 0.04 0.04 97 1010.3
20260509044235 74 87 1.0 4.0 0.00 0.04 0.04 97 1010.4
20260509043235 74 109 1.0 3.0 0.00 0.04 0.04 97 1010.3
20260509042735 74 109 1.0 6.0 0.00 0.04 0.04 97 1010.4
20260509042235 74 120 1.0 6.0 0.00 0.04 0.04 97 1010.3
20260509041734 74 108 1.0 6.0 0.00 0.04 0.04 97 1010.3
20260509041235 74 109 1.0 6.0 0.00 0.04 0.04 97 1010.2
20260509040735 74 109 2.0 6.0 0.00 0.04 0.04 97 1010.2
20260509040500 74 103 1.0 4.0 0.00 0.04 0.04 97 1010.1
20260509035729 74 99 1.0 6.0 0.00 0.04 0.04 96 1010.1
20260509035231 74 105 2.0 7.0 0.00 0.04 0.04 96 1010.1
20260509034730 74 90 1.0 7.0 0.00 0.04 0.04 96 1009.9
20260509034503 74 61 1.0 3.0 0.00 0.04 0.04 96 1010.0
20260509033729 74 61 0.0 3.0 0.00 0.04 0.04 96 1009.9
20260509033230 74 61 1.0 3.0 0.00 0.04 0.04 96 1009.9
20260509032729 74 61 1.0 3.0 0.00 0.04 0.04 96 1009.8
20260509032230 74 58 1.0 4.0 0.00 0.04 0.04 96 1009.8
20260509031731 74 51 2.0 4.0 0.00 0.04 0.04 96 1009.7
20260509031232 74 52 2.0 5.0 0.00 0.04 0.04 96 1009.7
20260509030731 74 51 2.0 5.0 0.00 0.04 0.04 96 1009.7
20260509030232 74 55 2.0 5.0 0.00 0.04 0.04 96 1009.8
20260509025732 74 84 2.0 5.0 0.00 0.04 0.04 96 1009.7
20260509025229 74 53 2.0 5.0 0.00 0.04 0.04 96 1009.6
20260509024730 74 53 2.0 5.0 0.00 0.04 0.04 96 1009.6
20260509024501 74 52 2.0 3.0 0.00 0.04 0.04 96 1009.6
20260509023729 74 52 2.0 4.0 0.00 0.04 0.04 96 1009.5
20260509023230 74 53 2.0 4.0 0.00 0.04 0.04 96 1009.3
20260509022730 74 53 2.0 4.0 0.00 0.04 0.04 96 1009.5
20260509022229 74 53 2.0 4.0 0.00 0.04 0.04 96 1009.3
20260509021729 74 47 2.0 4.0 0.00 0.04 0.04 96 1009.3
20260509021229 74 46 2.0 4.0 0.00 0.04 0.04 96 1009.3
20260509020731 74 46 2.0 5.0 0.00 0.04 0.04 96 1009.2
20260509020228 74 57 2.0 7.0 0.00 0.04 0.04 96 1009.0
20260509015727 74 53 2.0 7.0 0.00 0.04 0.04 96 1009.0
20260509015456 74 79 2.0 5.0 0.00 0.04 0.04 96 1009.0
20260509015344 74 62 2.0 6.0 0.00 0.04 0.04 96 1009.1
20260509014456 74 42 2.0 6.0 0.00 0.04 0.04 96 1009.1
20260509013727 74 83 2.0 5.0 0.00 0.04 0.04 96 1009.0
20260509013227 74 65 2.0 5.0 0.00 0.04 0.04 96 1009.0
20260509012721 74 44 1.0 5.0 0.00 0.04 0.04 96 1009.0
20260509012216 74 47 1.0 4.0 0.00 0.04 0.04 96 1008.9
20260509011709 74 46 1.0 3.0 0.00 0.04 0.04 96 1008.9
20260509011203 74 46 0.0 3.0 0.00 0.04 0.04 96 1009.1
20260509010657 74 46 1.0 2.0 0.00 0.04 0.04 96 1009.0
20260509010151 74 46 1.0 4.0 0.00 0.04 0.04 96 1009.0